Regional Weather Roundup
Issued by NWS Cleveland, OH

Home | Current Version | Previous Version | Text Only | Print | Product List | Glossary Off
Versions: 1 2 3 4 5 6 7 8 9 10 11 12 13 14 15 16 17 18 19 20 21 22 23 24 25 26 27 28 29 30 31 32 33 34 35 36 37 38 39 40 41 42 43 44 45 46 47 48 49 50

000
ASUS41 KCLE 190910
RWRCLE
OHIO REGIONAL WEATHER ROUNDUP
NATIONAL WEATHER SERVICE WILMINGTON, OH
500 AM EDT SAT APR 19 2014

NOTE: "FAIR" INDICATES FEW OR NO CLOUDS BELOW 12,000 FEET WITH NO
SIGNIFICANT WEATHER AND/OR OBSTRUCTIONS TO VISIBILITY.

OHZ001>008-015>018-024>027-034-035-043-044-191000-
   NORTHWEST OHIO

CITY           SKY/WX    TMP DP  RH WIND       PRES   REMARKS
DEFIANCE       CLEAR     39  33  79 NE7       30.36R
FINDLAY        CLEAR     39  34  82 NE15      30.33R
TOLEDO EXPRESS CLEAR     37  30  75 NE10      30.36R
TOLEDO METCALF CLEAR     38  32  79 NE10      30.38R
LIMA           PTCLDY    41  37  86 NE9       30.31R
$$

OHZ009>014-019>023-028>033-038-089-191000-
   NORTHEAST OHIO

CITY           SKY/WX    TMP DP  RH WIND       PRES   REMARKS
CLE-HOPKINS    CLEAR     39  34  82 NE12      30.37R
CLE-LAKEFRONT  CLEAR     40  35  83 NE14      30.34R
CUY CO. ARPT   NOT AVBL
LORAIN-ELYRIA  CLEAR     39  31  72 NE9       30.35R
ASHTABULA      CLEAR     37  31  78 N7        30.34R
AKRON-CANTON   PTCLDY    43  39  86 NE9       30.30R
WOOSTER        CLEAR     42  37  82 NE8       30.31R
MANSFIELD      CLEAR     40  37  89 N10       30.31R
YOUNGSTOWN     PTCLDY    40  37  89 NE6       30.31R
$$

OHZ042-051>053-060>062-070>072-077>081-191000-
  SOUTHWEST OHIO

CITY           SKY/WX    TMP DP  RH WIND       PRES   REMARKS
CINC-COVINGTON MOCLDY    50  37  61 N8        30.23S
CINC-LUNKEN    PTCLDY    42  41  96 CALM      30.25S
HAMILTON       PTCLDY    50  37  61 N5        30.26S
DAYTON         PTCLDY    44  38  79 N8        30.27R
WRIGHT-PAT AFB PTCLDY    46  39  77 N6        30.26R
DAYTON GENERAL PTCLDY    47  38  71 N7        30.25R
WILMINGTON     CLEAR     48  38  68 N8        30.24S
$$

OHZ036-037-039>041-045>050-054>059-063>069-073>076-082>088-191000-
  CENTRAL AND SOUTHEAST OHIO

CITY           SKY/WX    TMP DP  RH WIND       PRES   REMARKS
COLUMBUS       PTCLDY    50  40  68 NE8       30.26R
OSU AIRPORT    CLEAR     45  40  82 N9        30.26R
BOLTON FIELD   CLEAR     45  41  85 N8        30.26R
RICKENBACK AFB PTCLDY    48  39  70 N8        30.25R
NEWARK         PTCLDY    48  39  71 N6        30.26R
MARION         CLOUDY    41  39  93 NE14      30.30R FOG
LANCASTER      PTCLDY    47  40  76 CALM      30.26R
ZANESVILLE     MOCLDY    47  39  74 N5        30.26R
NEW PHILLY     PTCLDY    45  38  76 VRB3      30.29S
$$



USA.gov is the U.S. government's official web portal to all federal, state and local government web resources and services.